CW9769 Weather Reports


Display with metric or nautical units.
time (UTC)temp
F
wind
direction
speed
MPH
gust
MPH
rain 1hr
in
rain 24hr
in
rain mn
in
humidity
%
barometer
mb
20260507095603 41 262 1.0 4.0 0.00 0.00 0.00 80 1011.7
20260507094602 41 295 3.0 3.0 0.00 0.00 0.00 80 1012.0
20260507093601 42 266 1.0 3.0 0.00 0.00 0.00 80 1011.7
20260507092601 42 264 1.0 3.0 0.00 0.00 0.00 80 1011.7
20260507091600 42 264 2.0 3.0 0.00 0.00 0.00 80 1011.7
20260507090559 42 267 1.0 4.0 0.00 0.00 0.00 80 1012.1
20260507085527 42 265 1.0 4.0 0.00 0.00 0.00 81 1012.1
20260507084526 41 288 1.0 3.0 0.00 0.00 0.00 82 1012.1
20260507083525 41 298 1.0 4.0 0.00 0.00 0.00 82 1012.1
20260507082525 41 296 2.0 3.0 0.00 0.01 0.00 81 1012.1
20260507081524 41 299 1.0 3.0 0.00 0.01 0.00 83 1012.1
20260507080523 41 273 2.0 3.0 0.00 0.01 0.00 82 1012.1
20260507075522 41 300 1.0 2.0 0.00 0.02 0.00 81 1012.1
20260507074522 41 301 1.0 3.0 0.00 0.04 0.00 81 1012.1
20260507073450 42 286 1.0 3.0 0.00 0.05 0.00 81 1012.1
20260507072449 42 286 1.0 2.0 0.00 0.05 0.00 81 1012.5
20260507071448 42 279 1.0 3.0 0.00 0.06 0.00 81 1012.2
20260507070446 42 279 1.0 3.0 0.00 0.06 0.00 79 1012.1
20260507065445 42 283 2.0 3.0 0.00 0.08 0.00 79 1012.5
20260507064445 43 279 1.0 3.0 0.00 0.09 0.00 79 1012.5
20260507063444 43 288 1.0 3.0 0.00 0.10 0.00 78 1012.5
20260507062443 43 293 1.0 3.0 0.00 0.11 0.00 79 1012.5
20260507061442 42 275 1.0 2.0 0.00 0.11 0.00 81 1012.5
20260507060441 42 274 1.0 2.0 0.00 0.12 0.00 81 1012.9
20260507055440 42 254 1.0 2.0 0.00 0.12 0.00 81 1012.8
20260507054439 42 230 1.0 2.0 0.00 0.13 0.00 82 1012.8
20260507053408 42 217 1.0 2.0 0.00 0.14 0.00 85 1012.8
20260507052306 42 217 0.0 2.0 0.00 0.15 0.00 83 1012.8
20260507051303 43 217 0.0 2.0 0.00 0.16 0.00 81 1012.8
20260507050232 43 217 2.0 2.0 0.00 0.16 0.00 82 1012.8
20260507045231 44 217 1.0 1.0 0.00 0.16 0.00 82 1013.2
20260507044230 44 217 0.0 2.0 0.00 0.17 0.00 80 1012.9
20260507043229 45 217 0.0 2.0 0.00 0.17 0.00 79 1012.9
20260507042228 45 217 1.0 2.0 0.00 0.18 0.00 77 1012.9
20260507041227 45 232 1.0 2.0 0.00 0.18 0.00 82 1012.9
20260507040227 45 223 1.0 3.0 0.00 0.18 0.18 82 1013.3
20260507035226 45 223 1.0 4.0 0.00 0.19 0.18 82 1013.3
20260507034225 45 186 1.0 2.0 0.00 0.19 0.18 82 1013.3
20260507033224 45 182 1.0 2.0 0.00 0.20 0.18 83 1013.6
20260507032223 45 179 1.0 2.0 0.00 0.21 0.18 82 1013.6
20260507031223 45 29 1.0 1.0 0.00 0.22 0.18 86 1013.5
20260507030150 45 23 0.0 2.0 0.00 0.24 0.18 85 1013.5
20260507025119 45 23 1.0 2.0 0.00 0.26 0.18 84 1013.9
20260507024117 45 22 0.0 2.0 0.00 0.28 0.18 84 1013.5
20260507023045 45 23 0.0 2.0 0.00 0.30 0.18 85 1013.2
20260507022043 45 23 0.0 2.0 0.00 0.32 0.18 82 1013.1
20260507021043 45 23 0.0 2.0 0.00 0.35 0.18 84 1013.1
20260507020042 46 22 0.0 0.0 0.00 0.38 0.18 82 1013.1
20260507015040 46 23 0.0 0.0 0.00 0.40 0.18 79 1013.1
20260507014040 46 22 0.0 0.0 0.00 0.42 0.18 78 1013.1
20260507013039 46 22 0.0 0.0 0.00 0.46 0.18 79 1013.1
20260507012038 46 23 0.0 0.0 0.00 0.47 0.18 78 1012.7
20260507011037 46 23 0.0 0.0 0.00 0.48 0.18 76 1012.8
20260507010037 47 23 0.0 0.0 0.00 0.50 0.18 75 1012.8
20260507005034 47 23 0.0 0.0 0.00 0.50 0.18 69 1012.7
20260507004032 48 23 0.0 0.0 0.00 0.51 0.18 69 1012.7
20260507003031 49 23 0.0 1.0 0.00 0.51 0.18 63 1012.4
20260507001959 49 23 0.0 2.0 0.00 0.52 0.18 66 1012.4
20260507000958 49 23 1.0 2.0 0.00 0.52 0.18 63 1012.8
20260506235958 50 23 2.0 4.0 0.00 0.54 0.18 61 1012.8
20260506234957 50 10 3.0 5.0 0.00 0.55 0.18 62 1012.8
20260506233957 50 35 2.0 5.0 0.00 0.59 0.18 60 1012.8
20260506232956 50 19 4.0 6.0 0.00 0.61 0.18 59 1012.8
20260506231853 50 33 3.0 10.0 0.00 0.61 0.18 61 1012.4
20260506230852 51 38 5.0 10.0 0.00 0.61 0.18 57 1012.4
20260506225851 51 26 3.0 9.0 0.00 0.61 0.18 58 1012.4
20260506224850 51 21 6.0 9.0 0.00 0.62 0.18 59 1012.5
20260506223850 51 41 5.0 10.0 0.00 0.63 0.18 57 1012.5
20260506222848 51 22 5.0 13.0 0.00 0.64 0.18 57 1012.8
20260506221847 51 23 7.0 12.0 0.00 0.66 0.18 57 1012.8
20260506220846 51 10 9.0 12.0 0.00 0.71 0.18 54 1012.5
20260506215814 51 39 6.0 12.0 0.00 0.72 0.18 55 1012.5
20260506214813 52 3 9.0 14.0 0.00 0.74 0.18 56 1012.1
20260506213812 52 19 10.0 14.0 0.00 0.76 0.18 53 1011.8
20260506212811 52 22 7.0 11.0 0.00 0.78 0.18 55 1011.8
20260506211810 53 44 7.0 11.0 0.00 0.80 0.18 57 1011.5
20260506210809 53 10 7.0 12.0 0.00 0.83 0.18 57 1011.5
20260506205809 54 2 9.0 12.0 0.00 0.85 0.18 55 1011.2
20260506204737 54 23 4.0 9.0 0.00 0.87 0.18 55 1011.6
20260506203736 54 19 5.0 8.0 0.00 0.91 0.18 53 1011.2
20260506202736 54 8 4.0 8.0 0.00 0.95 0.18 59 1011.6
20260506201734 54 18 5.0 10.0 0.00 0.97 0.18 58 1011.6
20260506200734 53 18 5.0 10.0 0.00 1.00 0.18 57 1011.5
20260506195733 54 20 5.0 10.0 0.00 1.03 0.18 55 1011.6
20260506194732 54 22 3.0 12.0 0.00 1.05 0.18 51 1011.6
20260506193629 54 16 7.0 12.0 0.00 1.07 0.18 54 1011.6
20260506192628 55 30 5.0 10.0 0.00 1.09 0.18 54 1011.6
20260506191556 55 339 7.0 10.0 0.00 1.10 0.18 55 1011.6
20260506190556 54 325 2.0 9.0 0.00 1.11 0.18 51 1011.6
20260506185555 55 39 5.0 10.0 0.00 1.12 0.18 52 1011.6
20260506184555 55 26 5.0 11.0 0.00 1.13 0.18 54 1011.6
20260506183554 55 43 6.0 14.0 0.00 1.14 0.18 52 1011.6
20260506182553 55 11 9.0 12.0 0.00 1.14 0.18 53 1011.6
20260506181552 55 46 4.0 13.0 0.00 1.14 0.18 57 1011.6
20260506180550 55 43 4.0 15.0 0.00 1.14 0.18 52 1011.9
20260506175549 55 25 8.0 15.0 0.00 1.14 0.18 54 1011.9
20260506174548 54 44 10.0 15.0 0.00 1.14 0.18 54 1011.9
20260506173547 54 40 12.0 15.0 0.00 1.14 0.18 55 1011.6
20260506172547 55 13 9.0 13.0 0.00 1.14 0.18 57 1011.9
20260506171514 54 37 7.0 14.0 0.00 1.14 0.18 54 1011.6
20260506170514 54 18 5.0 14.0 0.00 1.14 0.18 58 1011.9
20260506165512 54 9 7.0 16.0 0.00 1.14 0.18 55 1011.9
20260506164512 55 8 10.0 16.0 0.00 1.14 0.18 54 1011.9
20260506163511 54 24 7.0 14.0 0.00 1.14 0.18 59 1011.6
20260506162510 54 18 8.0 14.0 0.00 1.14 0.18 68 1011.6
20260506161509 54 33 8.0 14.0 0.00 1.14 0.18 65 1011.3
20260506160509 55 10 8.0 14.0 0.00 1.14 0.18 63 1011.3
20260506155437 54 7 10.0 14.0 0.00 1.14 0.18 66 1011.3
20260506154436 54 22 8.0 15.0 0.00 1.14 0.18 63 1011.0
20260506153405 54 53 8.0 15.0 0.00 1.14 0.18 64 1011.3
20260506152403 54 26 9.0 14.0 0.00 1.14 0.18 67 1011.3
20260506151403 53 40 11.0 14.0 0.00 1.14 0.18 69 1011.0
20260506150402 53 39 10.0 14.0 0.00 1.14 0.18 73 1010.6
20260506145401 53 0 8.0 15.0 0.00 1.14 0.18 74 1010.6
20260506144400 52 12 9.0 15.0 0.00 1.14 0.18 80 1010.6
20260506143359 51 356 9.0 14.0 0.00 1.14 0.18 80 1010.6
20260506142359 50 356 8.0 13.0 0.00 1.14 0.18 80 1010.6
20260506141358 49 347 9.0 12.0 0.00 1.14 0.18 80 1010.5
20260506140358 49 357 7.0 11.0 0.00 1.14 0.18 83 1010.2
20260506135254 48 350 7.0 14.0 0.00 1.14 0.18 82 1010.2
20260506134253 48 357 7.0 14.0 0.00 1.14 0.18 81 1010.2
20260506133252 48 352 7.0 13.0 0.00 1.14 0.18 82 1010.2
20260506132252 48 342 9.0 13.0 0.00 1.14 0.18 82 1010.2
20260506131251 48 341 7.0 11.0 0.00 1.14 0.18 82 1009.8
20260506130250 47 352 6.0 10.0 0.00 1.14 0.18 84 1009.8
20260506125249 46 350 5.0 10.0 0.00 1.14 0.18 86 1009.4
20260506124249 46 353 4.0 9.0 0.00 1.14 0.18 88 1009.1
20260506123217 45 354 6.0 9.0 0.00 1.14 0.18 88 1009.1
20260506122216 45 354 5.0 9.0 0.00 1.14 0.18 89 1008.7
20260506121215 45 348 5.0 9.0 0.00 1.14 0.18 89 1008.7
20260506120214 45 349 6.0 9.0 0.00 1.14 0.18 89 1008.7
20260506115142 45 342 5.0 9.0 0.00 1.14 0.18 92 1008.7
20260506114141 45 339 6.0 7.0 0.00 1.14 0.18 92 1008.8
20260506113141 45 332 3.0 7.0 0.00 1.14 0.18 93 1008.7
20260506112140 45 330 2.0 4.0 0.00 1.14 0.18 93 1008.4
20260506111139 45 332 2.0 4.0 0.00 1.14 0.18 92 1008.1
20260506110138 45 318 1.0 3.0 0.00 1.14 0.18 92 1007.7
20260506105137 45 325 2.0 5.0 0.00 1.14 0.18 92 1007.7
20260506104136 45 342 2.0 7.0 0.00 1.14 0.18 92 1007.7
20260506103135 45 359 5.0 7.0 0.00 1.14 0.18 92 1007.4
20260506102135 45 15 3.0 10.0 0.00 1.14 0.18 92 1007.1
20260506101134 45 358 5.0 10.0 0.00 1.14 0.18 93 1007.8
20260506100133 45 349 8.0 10.0 0.00 1.14 0.18 93 1007.8